GW0468 Weather Reports


Display with metric or nautical units.
time (UTC)temp
F
wind
direction
speed
MPH
gust
MPH
rain 1hr
in
rain 24hr
in
rain mn
in
humidity
%
barometer
mb
20260506190735 84 117 2.0 5.0 0.00 0.00 0.00 1 1008.1
20260506185734 83 131 2.0 6.0 0.00 0.00 0.00 1 1008.2
20260506185235 84 125 4.0 7.0 0.00 0.00 0.00 1 1008.2
20260506184733 84 133 2.0 7.0 0.00 0.00 0.00 1 1008.3
20260506184236 84 102 4.0 6.0 0.00 0.00 0.00 1 1008.4
20260506183734 83 140 3.0 5.0 0.00 0.00 0.00 1 1008.4
20260506183235 83 180 2.0 5.0 0.00 0.00 0.00 1 1008.5
20260506182733 83 118 3.0 5.0 0.00 0.00 0.00 1 1008.5
20260506182235 82 165 1.0 6.0 0.00 0.00 0.00 1 1008.5
20260506181733 82 106 3.0 6.0 0.00 0.00 0.00 1 1008.7
20260506181236 81 140 4.0 6.0 0.00 0.00 0.00 1 1008.9
20260506180731 82 125 4.0 6.0 0.00 0.00 0.00 1 1008.9
20260506175733 82 110 4.0 6.0 0.00 0.00 0.00 1 1009.0
20260506175233 82 96 3.0 6.0 0.00 0.00 0.00 1 1009.0
20260506174235 82 151 4.0 6.0 0.00 0.00 0.00 1 1009.1
20260506173732 83 125 3.0 6.0 0.00 0.00 0.00 1 1009.1
20260506173233 83 97 3.0 7.0 0.00 0.00 0.00 1 1009.2
20260506172733 83 103 3.0 7.0 0.00 0.00 0.00 1 1009.2
20260506172233 83 144 2.0 6.0 0.00 0.00 0.00 1 1009.1
20260506171732 83 142 2.0 7.0 0.00 0.00 0.00 1 1009.2
20260506171233 83 128 3.0 9.0 0.00 0.00 0.00 1 1009.2
20260506170731 83 113 5.0 9.0 0.00 0.00 0.00 1 1009.2
20260506170233 83 152 4.0 9.0 0.00 0.00 0.00 1 1009.3
20260506165730 82 97 4.0 6.0 0.00 0.00 0.00 1 1009.2
20260506165232 82 151 2.0 6.0 0.00 0.00 0.00 1 1009.2
20260506164732 81 83 3.0 6.0 0.00 0.00 0.00 1 1009.2
20260506164234 81 114 3.0 6.0 0.00 0.00 0.00 1 1009.0
20260506163731 81 93 4.0 6.0 0.00 0.00 0.00 1 1009.1
20260506163231 81 100 2.0 4.0 0.00 0.00 0.00 1 1009.1
20260506162729 81 97 2.0 5.0 0.00 0.00 0.00 1 1009.0
20260506162232 81 92 2.0 5.0 0.00 0.00 0.00 1 1009.0
20260506161731 82 94 3.0 6.0 0.00 0.00 0.00 1 1009.0
20260506161234 81 100 3.0 6.0 0.00 0.00 0.00 1 1008.8
20260506160731 81 85 3.0 6.0 0.00 0.00 0.00 1 1008.9
20260506160230 81 113 4.0 9.0 0.00 0.00 0.00 1 1008.8
20260506155730 81 99 4.0 9.0 0.00 0.00 0.00 1 1008.6
20260506155232 80 124 4.0 7.0 0.00 0.00 0.00 1 1008.5
20260506154729 80 135 4.0 10.0 0.00 0.00 0.00 1 1008.5
20260506154233 80 145 5.0 11.0 0.00 0.00 0.00 1 1008.3
20260506153730 80 97 6.0 11.0 0.00 0.00 0.00 1 1008.3
20260506153231 79 137 4.0 7.0 0.00 0.00 0.00 1 1008.3
20260506152728 79 137 2.0 5.0 0.00 0.00 0.00 1 1008.3
20260506152231 79 118 1.0 6.0 0.00 0.00 0.00 1 1008.3
20260506151730 79 102 4.0 9.0 0.00 0.00 0.00 1 1008.3
20260506151232 78 97 5.0 9.0 0.00 0.00 0.00 1 1008.2
20260506145728 78 94 5.0 7.0 0.00 0.00 0.00 1 1008.0
20260506145228 78 110 4.0 7.0 0.00 0.00 0.00 1 1007.9
20260506144729 78 92 4.0 7.0 0.00 0.00 0.00 1 1007.9
20260506144231 77 102 5.0 7.0 0.00 0.00 0.00 1 1007.9
20260506143229 77 118 5.0 9.0 0.00 0.00 0.00 1 1007.8
20260506142728 77 106 5.0 9.0 0.00 0.00 0.00 1 1007.9
20260506142230 77 107 4.0 7.0 0.00 0.00 0.00 1 1007.9
20260506141228 77 103 4.0 6.0 0.00 0.00 0.00 1 1007.9
20260506140728 77 80 3.0 6.0 0.00 0.00 0.00 1 1007.8
20260506140229 77 62 2.0 5.0 0.00 0.00 0.00 1 1007.9
20260506135228 76 107 5.0 7.0 0.00 0.00 0.00 1 1007.7
20260506134726 76 110 4.0 7.0 0.00 0.00 0.00 1 1007.7
20260506134230 76 107 4.0 7.0 0.00 0.00 0.00 1 1007.7
20260506133726 76 90 4.0 6.0 0.00 0.00 0.00 1 1007.6
20260506132726 76 90 3.0 5.0 0.00 0.00 0.00 1 1008.0
20260506132227 76 78 2.0 4.0 0.00 0.00 0.00 1 1007.9
20260506131727 76 85 3.0 4.0 0.00 0.00 0.00 1 1008.0
20260506130726 76 79 3.0 4.0 0.00 0.00 0.00 1 1007.9
20260506130226 76 87 2.0 4.0 0.00 0.00 0.00 1 1007.9
20260506125721 0 0.0 0.0 0.00 0.00 0.00 1007.8
20260506125216 0 0.0 0.0 0.00 0.00 0.00 1007.8
20260506124708 0 0.0 0.0 0.00 0.00 0.00 1007.8
20260506124206 0 0.0 0.0 0.00 0.00 0.00 1007.7
20260506123655 0 0.0 0.0 0.00 0.00 0.00 1007.7
20260506123152 0 0.0 0.0 0.00 0.00 0.00 1007.6
20260506122643 0 0.0 0.0 0.00 0.00 0.00 1007.7
20260506122139 0 0.0 0.0 0.00 0.00 0.00 1007.8
20260506121631 0 0.0 0.0 0.00 0.00 0.00 1007.7
20260506121128 0 0.0 0.0 0.00 0.00 0.00 1007.8
20260506120618 0 0.0 0.0 0.00 0.00 0.00 1007.7
20260506115606 0 0.0 0.0 0.00 0.00 0.00 1007.7
20260506115102 0 0.0 0.0 0.00 0.00 0.00 1007.6
20260506114554 0 0.0 0.0 0.00 0.00 0.00 1007.6
20260506113541 0 0.0 0.0 0.00 0.00 0.00 1007.4
20260506113037 0 0.0 0.0 0.00 0.00 0.00 1007.5
20260506112529 0 0.0 0.0 0.00 0.00 0.00 1007.5
20260506112025 0 0.0 0.0 0.00 0.00 0.00 1007.5
20260506111517 0 0.0 0.0 0.00 0.00 0.00 1007.3
20260506111014 0 0.0 0.0 0.00 0.00 0.00 1007.4
20260506110504 0 0.0 0.0 0.00 0.00 0.00 1007.4
20260506110000 0 0.0 0.0 0.00 0.00 0.00 1007.3
20260506105451 0 0.0 0.0 0.00 0.00 0.00 1007.2
20260506104948 0 0.0 0.0 0.00 0.00 0.00 1007.1
20260506104439 0 0.0 0.0 0.00 0.00 0.00 1007.2
20260506103937 0 0.0 0.0 0.00 0.00 0.00 1007.1
20260506103427 0 0.0 0.0 0.00 0.00 0.00 1007.1
20260506102923 0 0.0 0.0 0.00 0.00 0.00 1007.0
20260506102415 0 0.0 0.0 0.00 0.00 0.00 1007.0
20260506101911 0 0.0 0.0 0.00 0.00 0.00 1007.0
20260506100859 0 0.0 0.0 0.00 0.00 0.00 1007.1
20260506095846 0 0.0 0.0 0.00 0.00 0.00 1007.1
20260506095338 0 0.0 0.0 0.00 0.00 0.00 1007.0
20260506094833 0 0.0 0.0 0.00 0.00 0.00 1007.0
20260506093822 0 0.0 0.0 0.00 0.00 0.00 1006.9
20260506093313 0 0.0 0.0 0.00 0.00 0.00 1007.1
20260506092808 76 103 1.0 4.0 0.00 0.00 0.00 1 1007.0
20260506092306 76 103 1.0 4.0 0.00 0.00 0.00 1 1007.0
20260506091807 76 131 0.0 4.0 0.00 0.00 0.00 1 1007.0
20260506091307 76 103 2.0 3.0 0.00 0.00 0.00 1 1007.0
20260506090809 76 135 1.0 7.0 0.00 0.00 0.00 1 1007.0
20260506090306 76 134 2.0 7.0 0.00 0.00 0.00 1 1007.0
20260506085306 76 125 2.0 5.0 0.00 0.00 0.00 1 1007.0
20260506084806 77 114 2.0 6.0 0.00 0.00 0.00 1 1006.8
20260506084306 77 110 4.0 6.0 0.00 0.00 0.00 1 1006.9
20260506083809 77 140 3.0 5.0 0.00 0.00 0.00 1 1006.8
20260506083304 77 118 1.0 3.0 0.00 0.00 0.00 1 1006.9
20260506082807 77 120 1.0 5.0 0.00 0.00 0.00 1 1007.1
20260506082307 77 159 1.0 5.0 0.00 0.00 0.00 1 1007.1
20260506081807 77 110 2.0 7.0 0.00 0.00 0.00 1 1007.0
20260506081304 77 145 4.0 7.0 0.00 0.00 0.00 1 1006.9
20260506080806 77 134 2.0 6.0 0.00 0.00 0.00 1 1006.9
20260506080305 77 131 2.0 6.0 0.00 0.00 0.00 1 1007.1
20260506072806 77 144 2.0 6.0 0.00 0.00 0.00 1 1007.3
20260506072306 77 106 1.0 4.0 0.00 0.00 0.00 1 1007.3
20260506071805 77 127 1.0 5.0 0.00 0.00 0.00 1 1007.5
20260506071303 77 137 2.0 6.0 0.00 0.00 0.00 1 1007.5
20260506070807 77 193 4.0 6.0 0.00 0.00 0.00 1 1007.6
20260506070304 77 137 1.0 5.0 0.00 0.00 0.00 1 1007.8
20260506062305 78 145 3.0 10.0 0.00 0.00 0.00 1 1008.0
20260506061301 78 145 4.0 9.0 0.00 0.00 0.00 1 1008.1
20260506060804 78 124 4.0 9.0 0.00 0.00 0.00 1 1008.1
20260506060300 78 154 5.0 9.0 0.00 0.00 0.00 1 1008.2
20260506051301 78 169 3.0 9.0 0.00 0.00 0.00 1 1008.0
20260506050804 78 171 5.0 9.0 0.00 0.00 0.00 1 1007.9
20260506050301 78 164 3.0 10.0 0.00 0.00 0.00 1 1007.9
20260506044301 78 247 5.0 10.0 0.00 0.00 0.00 1 1007.9
20260506042801 78 210 4.0 10.0 0.00 0.00 0.00 1 1007.6
20260506042257 78 152 3.0 9.0 0.00 0.00 0.00 1 1007.5
20260506041300 78 135 4.0 10.0 0.00 0.00 0.00 1 1007.4
20260506040801 78 176 5.0 11.0 0.00 0.00 0.00 1 1007.4
20260506040258 78 154 5.0 11.0 0.00 0.00 0.00 1 1007.4
20260506035300 78 125 5.0 9.0 0.00 0.00 0.00 1 1007.3
20260506034257 78 162 4.0 12.0 0.00 0.00 0.00 1 1007.2
20260506033800 78 116 4.0 12.0 0.00 0.00 0.00 1 1007.1
20260506033259 78 157 5.0 14.0 0.00 0.00 0.00 1 1007.1
20260506032759 78 148 7.0 14.0 0.00 0.00 0.00 1 1006.9
20260506032257 78 165 6.0 12.0 0.00 0.00 0.00 1 1007.1
20260506031257 78 144 5.0 12.0 0.00 0.00 0.00 1 1007.0
20260506030759 78 123 7.0 15.0 0.00 0.00 0.00 1 1007.0
20260506030257 78 134 6.0 15.0 0.00 0.00 0.00 1 1007.0
20260506025258 78 154 4.0 10.0 0.00 0.00 0.00 1 1007.0
20260506024758 78 142 7.0 10.0 0.00 0.00 0.00 1 1006.9
20260506024258 78 141 4.0 10.0 0.00 0.00 0.00 1 1006.9
20260506023801 78 123 4.0 10.0 0.00 0.00 0.00 1 1006.7
20260506023258 78 147 4.0 10.0 0.00 0.00 0.00 1 1006.7
20260506022759 78 128 5.0 10.0 0.00 0.00 0.00 1 1006.7
20260506022258 78 133 4.0 9.0 0.00 0.00 0.00 1 1006.6
20260506021759 78 155 5.0 9.0 0.00 0.00 0.00 1 1006.5
20260506020757 78 118 3.0 9.0 0.00 0.00 0.00 1 1006.3
20260506020257 78 138 4.0 9.0 0.00 0.00 0.00 1 1006.2
20260506015757 78 117 5.0 10.0 0.00 0.00 0.00 1 1006.3
20260506015256 78 147 6.0 12.0 0.00 0.00 0.00 1 1006.3
20260506014757 78 145 7.0 15.0 0.00 0.00 0.00 1 1006.1
20260506014255 78 147 8.0 15.0 0.00 0.00 0.00 1 1006.0
20260506013758 78 158 6.0 11.0 0.00 0.00 0.00 1 1006.0
20260506013256 78 133 5.0 10.0 0.00 0.00 0.00 1 1005.9
20260506012756 78 116 3.0 13.0 0.00 0.00 0.00 1 1005.9
20260506012255 79 134 6.0 13.0 0.00 0.00 0.00 1 1005.9
20260506011256 79 124 5.0 10.0 0.00 0.00 0.00 1 1005.7
20260506010759 79 137 5.0 9.0 0.00 0.00 0.00 1 1005.6
20260506010254 79 123 5.0 9.0 0.00 0.00 0.00 1 1005.6
20260506005756 79 168 5.0 13.0 0.00 0.00 0.00 1 1005.4
20260506004756 79 141 6.0 14.0 0.00 0.00 0.00 1 1005.4
20260506003758 80 185 4.0 13.0 0.00 0.00 0.00 1 1005.3
20260506003256 80 118 5.0 13.0 0.00 0.00 0.00 1 1005.2
20260506002253 80 135 9.0 13.0 0.00 0.00 0.00 1 1005.2
20260506001756 80 121 5.0 15.0 0.00 0.00 0.00 1 1005.2
20260506001254 80 154 6.0 15.0 0.00 0.00 0.00 1 1005.2
20260506000255 80 155 6.0 14.0 0.00 0.00 0.00 1 1005.2
20260505235755 80 158 6.0 12.0 0.00 0.00 0.00 1 1005.0
20260505235255 80 148 7.0 12.0 0.00 0.00 0.00 1 1005.1
20260505234755 81 128 7.0 15.0 0.00 0.00 0.00 1 1005.0
20260505233756 81 141 6.0 15.0 0.00 0.00 0.00 1 1005.0
20260505233252 81 135 8.0 16.0 0.00 0.00 0.00 1 1005.1
20260505232754 81 120 7.0 16.0 0.00 0.00 0.00 1 1004.9
20260505232253 81 159 6.0 18.0 0.00 0.00 0.00 1 1005.1
20260505231755 81 110 10.0 18.0 0.00 0.00 0.00 1 1005.0
20260505231253 81 114 6.0 14.0 0.00 0.00 0.00 1 1004.9
20260505230756 81 157 9.0 14.0 0.00 0.00 0.00 1 1005.1
20260505230254 81 117 7.0 13.0 0.00 0.00 0.00 1 1005.1
20260505225753 81 155 8.0 13.0 0.00 0.00 0.00 1 1005.1
20260505225252 82 102 6.0 14.0 0.00 0.00 0.00 1 1005.2
20260505224253 82 94 10.0 15.0 0.00 0.00 0.00 1 1005.3
20260505223755 82 125 8.0 14.0 0.00 0.00 0.00 3 1005.3
20260505223251 82 117 8.0 15.0 0.00 0.00 0.00 1 1005.3
20260505222754 82 158 7.0 15.0 0.00 0.00 0.00 6 1005.5
20260505222253 82 161 8.0 15.0 0.00 0.00 0.00 3 1005.5
20260505221754 82 166 6.0 16.0 0.00 0.00 0.00 9 1005.5
20260505221253 82 100 8.0 16.0 0.00 0.00 0.00 5 1005.5
20260505220753 82 116 8.0 15.0 0.00 0.00 0.00 15 1005.5
20260505215753 83 145 7.0 15.0 0.00 0.00 0.00 18 1005.6
20260505215252 83 87 9.0 15.0 0.00 0.00 0.00 24 1005.5
20260505214752 83 109 7.0 14.0 0.00 0.00 0.00 29 1005.6
20260505214250 84 145 6.0 14.0 0.00 0.00 0.00 36 1005.6
20260505213753 84 155 7.0 16.0 0.00 0.00 0.00 41 1005.6
20260505213251 84 138 8.0 16.0 0.00 0.00 0.00 47 1005.6
20260505212250 84 128 9.0 13.0 0.00 0.00 0.00 47 1005.8
20260505211751 84 147 7.0 12.0 0.00 0.00 0.00 50 1005.9
20260505211250 84 125 6.0 14.0 0.00 0.00 0.00 46 1006.0
20260505210752 84 166 7.0 14.0 0.00 0.00 0.00 49 1006.0
20260505210249 84 114 8.0 15.0 0.00 0.00 0.00 45 1006.1
20260505205752 84 152 9.0 15.0 0.00 0.00 0.00 45 1006.1
20260505205250 84 159 8.0 13.0 0.00 0.00 0.00 44 1006.2
20260505204751 84 137 9.0 13.0 0.00 0.00 0.00 43 1006.2
20260505204248 84 118 6.0 13.0 0.00 0.00 0.00 41 1006.3
20260505203753 83 131 8.0 13.0 0.00 0.00 0.00 42 1006.3
20260505203249 84 161 7.0 15.0 0.00 0.00 0.00 42 1006.5
20260505202250 84 178 8.0 15.0 0.00 0.00 0.00 48 1006.5
20260505201750 84 162 9.0 15.0 0.00 0.00 0.00 41 1006.6
20260505201249 84 155 8.0 16.0 0.00 0.00 0.00 46 1006.6
20260505200751 84 159 7.0 16.0 0.00 0.00 0.00 41 1006.7
20260505200249 84 111 6.0 12.0 0.00 0.00 0.00 40 1006.8
20260505195749 84 140 6.0 15.0 0.00 0.00 0.00 36 1006.9
20260505195248 84 166 7.0 15.0 0.00 0.00 0.00 39 1006.9
20260505194750 84 154 8.0 12.0 0.00 0.00 0.00 45 1006.8
20260505194249 84 114 2.0 12.0 0.00 0.00 0.00 43 1006.9
20260505193751 84 144 6.0 12.0 0.00 0.00 0.00 44 1007.0
20260505193248 83 131 6.0 11.0 0.00 0.00 0.00 36 1007.0
20260505192749 83 148 5.0 12.0 0.00 0.00 0.00 34 1007.0
20260505192248 83 182 6.0 14.0 0.00 0.00 0.00 33 1007.1
20260505191749 83 125 6.0 14.0 0.00 0.00 0.00 36 1007.2
20260505191248 83 178 5.0 11.0 0.00 0.00 0.00 24 1007.2